Simultaneous Nadir Overpasses (SNOs) Predictions

Prediction of SNOs between GOES-15 and METOP-B Satellite Orbit:

Table of predicted SNOs for the next 14.0 days since TLE Epoch: 2/18/2023
Index Date Time (GOES-15) GOES-15 Lat,Lon METOP-B Lat,Lon Distance(km) Time Diff (sec)
1 02/19/2023 06:06:37 0.03,-128.20 -0.21,-129.38 134.66 80
2 02/20/2023 05:48:38 0.02,-128.18 0.88,-124.39 433.14 80
3 02/21/2023 18:04:49 -0.03,-128.13 0.18,-128.94 93.02 80
4 02/22/2023 17:46:50 -0.02,-128.11 -0.92,-123.94 474.64 80
5 02/24/2023 06:03:11 0.03,-128.13 -0.06,-128.55 48.06 80
6 02/26/2023 18:01:23 -0.04,-128.05 -0.01,-128.11 7.35 80
7 03/01/2023 06:02:24 0.04,-128.03 0.10,-127.71 36.02 80
8 03/02/2023 18:18:35 -0.06,-127.97 0.93,-132.27 490.96 80
9 03/03/2023 18:00:36 -0.05,-127.95 -0.19,-127.28 75.78 80
